GW3419 Weather Reports


Display with metric or nautical units.
time (UTC)temp
F
wind
direction
speed
MPH
gust
MPH
rain 1hr
in
rain 24hr
in
rain mn
in
humidity
%
barometer
mb
20260509145223 54 24 10.0 13.0 0.00 0.00 0.00 67 1000.3
20260509144720 54 144 5.0 20.0 0.00 0.00 0.00 68 1000.3
20260509144217 54 352 5.0 18.0 0.00 0.00 0.00 67 1000.3
20260509143714 54 317 7.0 18.0 0.00 0.00 0.00 68 1000.2
20260509143211 54 26 8.0 18.0 0.00 0.00 0.00 67 1000.2
20260509142707 55 1 5.0 16.0 0.00 0.00 0.00 64 1000.0
20260509142204 54 350 7.0 15.0 0.00 0.00 0.00 64 1000.1
20260509141659 54 330 4.0 16.0 0.00 0.00 0.00 67 999.8
20260509141156 54 4 8.0 17.0 0.00 0.00 0.00 67 1000.0
20260509140653 55 227 4.0 16.0 0.00 0.00 0.00 68 999.8
20260509140151 54 341 9.0 15.0 0.00 0.00 0.00 68 999.7
20260509135648 54 339 6.0 17.0 0.00 0.00 0.00 67 999.5
20260509135146 54 345 4.0 18.0 0.00 0.00 0.00 67 999.6
20260509134642 54 279 6.0 16.0 0.00 0.00 0.00 65 999.4
20260509134140 54 87 2.0 15.0 0.00 0.00 0.00 65 999.6
20260509133637 54 264 2.0 8.0 0.00 0.00 0.00 63 999.5
20260509133134 54 319 6.0 11.0 0.00 0.00 0.00 60 999.2
20260509132632 55 45 3.0 12.0 0.00 0.00 0.00 58 999.4
20260509132130 54 279 2.0 3.0 0.00 0.00 0.00 57 999.1
20260509131626 54 20 1.0 7.0 0.00 0.00 0.00 56 998.9
20260509131123 55 306 2.0 4.0 0.00 0.00 0.00 54 999.2
20260509130619 54 44 1.0 4.0 0.00 0.00 0.00 54 999.0
20260509130115 52 193 2.0 4.0 0.00 0.00 0.00 56 999.0
20260509125612 52 341 3.0 5.0 0.00 0.00 0.00 56 999.1
20260509125109 51 245 2.0 3.0 0.00 0.00 0.00 57 999.4
20260509124605 51 275 3.0 5.0 0.00 0.00 0.00 57 998.8
20260509124103 50 173 1.0 4.0 0.00 0.00 0.00 60 999.0
20260509123600 50 20 1.0 3.0 0.00 0.00 0.00 59 998.7
20260509123057 50 4 2.0 5.0 0.00 0.00 0.00 59 998.9
20260509122553 49 3 1.0 2.0 0.00 0.00 0.00 61 998.5
20260509122050 48 228 1.0 3.0 0.00 0.00 0.00 62 998.5
20260509121546 48 269 0.0 2.0 0.00 0.00 0.00 64 998.5
20260509121048 48 199 0.0 3.0 0.00 0.00 0.00 63 998.5
20260509120542 48 172 0.0 3.0 0.00 0.00 0.00 63 998.3
20260509120041 48 253 2.0 4.0 0.00 0.00 0.00 63 998.5
20260509115537 48 304 3.0 9.0 0.00 0.00 0.00 63 998.7
20260509115035 48 2 2.0 3.0 0.00 0.00 0.00 63 998.0
20260509114533 47 280 0.0 3.0 0.00 0.00 0.00 65 998.0
20260509114031 48 197 0.0 4.0 0.00 0.00 0.00 61 998.2
20260509113529 48 0 1.0 3.0 0.00 0.00 0.00 61 998.4
20260509113027 48 324 0.0 5.0 0.00 0.00 0.00 61 998.2
20260509112523 47 315 3.0 4.0 0.00 0.00 0.00 61 998.3
20260509112020 47 139 2.0 6.0 0.00 0.00 0.00 62 998.4
20260509111517 47 266 2.0 9.0 0.00 0.00 0.00 61 998.0
20260509111014 47 301 2.0 3.0 0.00 0.00 0.00 62 997.8
20260509110511 47 222 0.0 3.0 0.00 0.00 0.00 61 997.7
20260509110008 47 287 1.0 5.0 0.00 0.00 0.00 61 998.1
20260509105506 47 291 2.0 6.0 0.00 0.00 0.00 60 998.1
20260509105003 48 255 0.0 4.0 0.00 0.00 0.00 60 997.9
20260509104500 48 327 5.0 9.0 0.00 0.00 0.00 59 998.0
20260509103957 48 298 4.0 17.0 0.00 0.00 0.00 58 998.0
20260509103455 48 313 9.0 16.0 0.00 0.00 0.00 59 998.3
20260509102953 48 325 2.0 3.0 0.00 0.00 0.00 59 997.3
20260509102450 48 252 1.0 3.0 0.00 0.00 0.00 58 996.9
20260509101946 48 243 2.0 4.0 0.00 0.00 0.00 57 996.8
20260509101442 48 239 2.0 4.0 0.00 0.00 0.00 58 996.7
20260509100940 48 237 2.0 4.0 0.00 0.00 0.00 58 997.0
20260509100437 47 233 3.0 4.0 0.00 0.00 0.00 60 997.0
20260509095934 47 217 2.0 4.0 0.00 0.00 0.00 60 997.1
20260509095431 47 230 2.0 4.0 0.00 0.00 0.00 57 997.0
20260509094928 47 222 3.0 5.0 0.00 0.00 0.00 57 997.1
20260509094424 47 226 2.0 4.0 0.00 0.00 0.00 58 997.3
20260509093922 47 234 3.0 4.0 0.00 0.00 0.00 58 997.2
20260509093419 48 239 2.0 5.0 0.00 0.00 0.00 56 997.3
20260509092917 48 227 2.0 4.0 0.00 0.00 0.00 56 997.4
20260509092415 48 263 2.0 4.0 0.00 0.00 0.00 55 997.4
20260509091914 47 225 2.0 4.0 0.00 0.00 0.00 57 997.2
20260509091410 46 216 1.0 3.0 0.00 0.00 0.00 59 997.3
20260509090907 46 231 0.0 2.0 0.00 0.00 0.00 59 997.4
20260509090404 47 220 0.0 2.0 0.00 0.00 0.00 57 997.3
20260509085902 47 287 0.0 2.0 0.00 0.00 0.00 56 997.5
20260509085359 47 253 0.0 2.0 0.00 0.00 0.00 58 997.3
20260509084855 47 201 1.0 3.0 0.00 0.00 0.00 58 997.3
20260509084352 47 239 1.0 2.0 0.00 0.00 0.00 58 997.4
20260509083850 48 236 0.0 3.0 0.00 0.00 0.00 56 997.3
20260509083346 48 195 0.0 3.0 0.00 0.00 0.00 57 997.2
20260509082843 48 198 2.0 3.0 0.00 0.00 0.00 56 997.0
20260509082340 48 210 2.0 3.0 0.00 0.00 0.00 56 997.3
20260509081837 48 214 2.0 3.0 0.00 0.00 0.00 55 997.1
20260509081334 49 220 1.0 2.0 0.00 0.00 0.00 54 997.2
20260509080832 48 172 0.0 2.0 0.00 0.00 0.00 55 997.1
20260509080329 49 213 1.0 3.0 0.00 0.00 0.00 55 997.1
20260509075828 49 241 0.0 1.0 0.00 0.00 0.00 53 997.3
20260509075324 49 222 0.0 2.0 0.00 0.00 0.00 54 997.3
20260509074821 49 226 2.0 3.0 0.00 0.00 0.00 53 997.4
20260509074319 48 228 0.0 1.0 0.00 0.00 0.00 54 997.4
20260509073815 48 229 1.0 2.0 0.00 0.00 0.00 53 997.4
20260509073312 48 199 0.0 2.0 0.00 0.00 0.00 54 997.6
20260509072808 48 236 1.0 2.0 0.00 0.00 0.00 55 997.7
20260509072306 48 255 0.0 2.0 0.00 0.00 0.00 54 997.7
20260509071802 48 226 2.0 3.0 0.00 0.00 0.00 55 997.8
20260509071259 47 248 0.0 2.0 0.00 0.00 0.00 57 997.9
20260509070755 47 310 0.0 2.0 0.00 0.00 0.00 56 997.8
20260509070252 48 248 0.0 1.0 0.00 0.00 0.00 55 997.8
20260509065748 48 243 0.0 2.0 0.00 0.00 0.00 54 998.0
20260509065245 49 315 0.0 3.0 0.00 0.00 0.00 54 997.9
20260509064741 49 290 0.0 3.0 0.00 0.00 0.00 53 998.1
20260509064239 50 323 1.0 2.0 0.00 0.00 0.00 52 997.8
20260509063736 51 0 0.0 0.0 0.00 0.00 0.00 50 997.6
20260509063232 51 318 1.0 3.0 0.00 0.00 0.00 49 997.8
20260509062730 52 335 2.0 3.0 0.00 0.00 0.00 48 997.5
20260509062227 53 324 2.0 5.0 0.00 0.00 0.00 47 997.9
20260509061724 53 342 2.0 5.0 0.00 0.00 0.00 47 997.7
20260509061222 53 324 4.0 5.0 0.00 0.00 0.00 46 998.2
20260509060719 54 326 2.0 7.0 0.00 0.00 0.00 46 998.0
20260509060215 54 266 2.0 8.0 0.00 0.00 0.00 46 998.0
20260509055711 54 305 3.0 8.0 0.00 0.00 0.00 45 997.9
20260509055207 55 315 4.0 8.0 0.00 0.00 0.00 45 997.9
20260509054703 55 325 3.0 9.0 0.00 0.00 0.00 45 998.0
20260509054201 55 255 3.0 15.0 0.00 0.00 0.00 44 998.0
20260509053659 55 302 10.0 14.0 0.00 0.00 0.00 44 997.8
20260509053155 55 23 0.0 8.0 0.00 0.00 0.00 46 997.9
20260509052653 55 306 3.0 9.0 0.00 0.00 0.00 45 998.1
20260509052151 56 296 6.0 11.0 0.00 0.00 0.00 44 997.9
20260509051648 56 338 3.0 12.0 0.00 0.00 0.00 44 997.9
20260509051145 56 281 4.0 9.0 0.00 0.00 0.00 45 998.0
20260509050642 56 237 3.0 10.0 0.00 0.00 0.00 45 997.8
20260509050139 55 306 4.0 12.0 0.00 0.00 0.00 45 997.8
20260509045637 55 266 6.0 11.0 0.00 0.00 0.00 44 997.8
20260509045133 55 300 4.0 8.0 0.00 0.00 0.00 44 997.7
20260509044631 55 278 3.0 7.0 0.00 0.00 0.00 44 997.8
20260509044128 56 314 4.0 8.0 0.00 0.00 0.00 43 997.7
20260509043624 56 322 1.0 4.0 0.00 0.00 0.00 42 997.6
20260509043119 56 324 3.0 6.0 0.00 0.00 0.00 42 997.6
20260509042616 56 109 1.0 7.0 0.00 0.00 0.00 43 997.8
20260509042112 56 232 2.0 7.0 0.00 0.00 0.00 43 997.5
20260509041610 56 258 0.0 6.0 0.00 0.00 0.00 43 997.6
20260509041107 55 232 2.0 6.0 0.00 0.00 0.00 43 997.5
20260509040606 55 210 0.0 4.0 0.00 0.00 0.00 44 997.6
20260509035558 55 280 1.0 8.0 0.00 0.00 0.00 44 997.7
20260509035055 55 257 2.0 4.0 0.00 0.00 0.00 45 997.6
20260509034553 54 283 1.0 6.0 0.00 0.00 0.00 45 997.6
20260509034050 54 126 1.0 5.0 0.00 0.00 0.00 47 997.4
20260509033547 53 297 0.0 4.0 0.00 0.00 0.00 50 997.5
20260509033044 52 354 0.0 2.0 0.00 0.00 0.00 52 997.3
20260509032541 52 345 1.0 1.0 0.00 0.00 0.00 53 997.4
20260509032038 52 296 0.0 2.0 0.00 0.00 0.00 52 997.3
20260509031536 52 310 0.0 1.0 0.00 0.00 0.00 52 997.3
20260509031033 52 321 0.0 1.0 0.00 0.00 0.00 52 997.2
20260509030531 53 212 0.0 2.0 0.00 0.00 0.00 51 997.0
20260509030028 53 329 0.0 2.0 0.00 0.00 0.00 51 997.3
20260509025524 53 214 0.0 1.0 0.00 0.00 0.00 53 997.1
20260509025019 53 240 0.0 1.0 0.00 0.00 0.00 52 997.2
20260509024516 54 55 0.0 0.0 0.00 0.00 0.00 53 997.0
20260509024012 55 336 0.0 2.0 0.00 0.00 0.00 53 997.2
20260509023509 55 22 0.0 1.0 0.00 0.00 0.00 50 997.1
20260509023006 56 339 0.0 0.0 0.00 0.00 0.00 48 997.2
20260509022503 56 325 0.0 2.0 0.00 0.00 0.00 46 997.0
20260509022001 57 253 0.0 2.0 0.00 0.00 0.00 46 997.1
20260509021457 57 230 0.0 1.0 0.00 0.00 0.00 46 996.9
20260509020954 57 235 0.0 2.0 0.00 0.00 0.00 47 996.8
20260509020453 57 293 0.0 2.0 0.00 0.00 0.00 48 996.9
20260509015949 57 160 0.0 1.0 0.00 0.00 0.00 46 996.9
20260509015448 58 205 2.0 3.0 0.00 0.00 0.00 47 996.7
20260509014944 58 246 0.0 2.0 0.00 0.00 0.00 47 996.8
20260509014442 59 50 0.0 1.0 0.00 0.00 0.00 46 996.8
20260509013938 60 212 0.0 2.0 0.00 0.00 0.00 45 996.6
20260509013435 60 239 0.0 2.0 0.00 0.00 0.00 43 996.7
20260509012931 60 163 0.0 2.0 0.00 0.00 0.00 44 996.5
20260509012427 61 58 0.0 2.0 0.00 0.00 0.00 45 996.6
20260509011924 61 49 0.0 2.0 0.00 0.00 0.00 44 996.5
20260509011422 62 129 0.0 1.0 0.00 0.00 0.00 40 996.6
20260509010920 63 89 0.0 2.0 0.00 0.00 0.00 40 996.5
20260509010417 64 0 0.0 3.0 0.00 0.00 0.00 38 996.7
20260509005913 65 349 1.0 6.0 0.00 0.00 0.00 36 996.7
20260509005412 65 59 1.0 3.0 0.00 0.00 0.00 36 996.4
20260509004911 65 27 2.0 4.0 0.00 0.00 0.00 36 996.4
20260509004408 66 17 0.0 2.0 0.00 0.00 0.00 35 996.1
20260509003906 66 338 2.0 3.0 0.00 0.00 0.00 35 996.6
20260509003403 67 161 1.0 5.0 0.00 0.00 0.00 33 996.5
20260509002900 67 75 2.0 3.0 0.00 0.00 0.00 34 996.5
20260509002358 68 7 0.0 8.0 0.00 0.00 0.00 33 996.5
20260509001855 68 84 2.0 13.0 0.00 0.00 0.00 32 996.4
20260509001351 68 102 2.0 9.0 0.00 0.00 0.00 32 996.4
20260509000849 68 10 1.0 9.0 0.00 0.00 0.00 31 996.5
20260509000348 68 98 2.0 9.0 0.00 0.00 0.00 31 996.4
20260508235842 68 314 6.0 12.0 0.00 0.00 0.00 30 996.4
20260508235340 69 265 4.0 16.0 0.00 0.00 0.00 30 996.5
20260508234836 69 345 4.0 10.0 0.00 0.00 0.00 30 996.7
20260508234333 69 223 4.0 16.0 0.00 0.00 0.00 29 996.4
20260508233832 69 243 1.0 10.0 0.00 0.00 0.00 28 996.6
20260508233331 69 23 2.0 5.0 0.00 0.00 0.00 28 996.6
20260508232827 69 271 2.0 7.0 0.00 0.00 0.00 27 996.9
20260508232323 69 303 3.0 5.0 0.00 0.00 0.00 26 996.9
20260508231822 69 313 2.0 7.0 0.00 0.00 0.00 26 996.8
20260508231317 69 181 3.0 13.0 0.00 0.00 0.00 25 996.8
20260508230815 69 206 3.0 7.0 0.00 0.00 0.00 26 996.9
20260508230311 70 127 3.0 14.0 0.00 0.00 0.00 25 996.9
20260508225809 70 290 4.0 8.0 0.00 0.00 0.00 25 996.9
20260508225306 70 256 3.0 9.0 0.00 0.00 0.00 25 997.0
20260508224803 70 297 2.0 4.0 0.00 0.00 0.00 27 997.2
20260508224300 70 11 3.0 8.0 0.00 0.00 0.00 25 997.2
20260508223758 70 309 3.0 8.0 0.00 0.00 0.00 25 997.3
20260508223255 70 300 4.0 5.0 0.00 0.00 0.00 25 997.4
20260508222752 69 267 2.0 5.0 0.00 0.00 0.00 27 997.3
20260508222249 69 23 1.0 14.0 0.00 0.00 0.00 26 997.5
20260508221746 70 330 4.0 5.0 0.00 0.00 0.00 25 997.5
20260508221242 71 192 2.0 11.0 0.00 0.00 0.00 25 997.5
20260508220738 70 209 2.0 7.0 0.00 0.00 0.00 24 997.5
20260508220235 71 284 3.0 9.0 0.00 0.00 0.00 24 997.7
20260508215731 71 298 5.0 11.0 0.00 0.00 0.00 25 997.6
20260508215228 70 5 3.0 6.0 0.00 0.00 0.00 25 997.8
20260508214725 70 331 3.0 12.0 0.00 0.00 0.00 25 997.9
20260508214222 70 347 5.0 12.0 0.00 0.00 0.00 25 998.0
20260508213718 70 351 2.0 15.0 0.00 0.00 0.00 25 998.1
20260508213215 70 303 4.0 7.0 0.00 0.00 0.00 26 998.1
20260508212712 71 238 3.0 7.0 0.00 0.00 0.00 25 998.2
20260508212208 70 247 3.0 8.0 0.00 0.00 0.00 25 998.2
20260508211704 71 301 4.0 7.0 0.00 0.00 0.00 26 998.2
20260508211200 69 335 2.0 4.0 0.00 0.00 0.00 29 998.3
20260508210657 70 251 5.0 7.0 0.00 0.00 0.00 26 998.6
20260508210154 70 262 3.0 7.0 0.00 0.00 0.00 25 998.4
20260508205651 70 316 5.0 11.0 0.00 0.00 0.00 26 998.5
20260508205148 69 259 4.0 9.0 0.00 0.00 0.00 25 998.5
20260508204644 69 117 3.0 11.0 0.00 0.00 0.00 25 998.7
20260508204140 69 133 2.0 11.0 0.00 0.00 0.00 26 998.4
20260508203636 69 257 2.0 12.0 0.00 0.00 0.00 25 998.7
20260508203132 70 357 2.0 6.0 0.00 0.00 0.00 26 998.6
20260508202629 70 342 4.0 12.0 0.00 0.00 0.00 24 998.8
20260508202126 70 269 6.0 13.0 0.00 0.00 0.00 24 998.9
20260508201623 72 65 4.0 11.0 0.00 0.00 0.00 23 999.0
20260508201119 71 286 2.0 11.0 0.00 0.00 0.00 25 998.8
20260508200616 71 92 2.0 8.0 0.00 0.00 0.00 25 999.2
20260508200112 72 247 5.0 11.0 0.00 0.00 0.00 23 999.1
20260508195609 71 181 2.0 17.0 0.00 0.00 0.00 24 998.9
20260508195105 70 331 3.0 10.0 0.00 0.00 0.00 24 998.9
20260508194602 72 349 5.0 13.0 0.00 0.00 0.00 22 999.5
20260508194059 72 339 4.0 11.0 0.00 0.00 0.00 24 999.2
20260508193556 72 264 4.0 11.0 0.00 0.00 0.00 23 999.4
20260508193053 71 328 3.0 7.0 0.00 0.00 0.00 28 999.5
20260508192549 71 27 4.0 9.0 0.00 0.00 0.00 23 999.6
20260508192047 71 347 3.0 14.0 0.00 0.00 0.00 24 999.7
20260508191543 71 314 5.0 7.0 0.00 0.00 0.00 25 999.9
20260508191040 71 247 2.0 5.0 0.00 0.00 0.00 24 1000.0
20260508190537 71 233 9.0 9.0 0.00 0.00 0.00 25 1000.2
20260508190033 71 168 3.0 8.0 0.00 0.00 0.00 25 1000.1
20260508185531 71 199 1.0 7.0 0.00 0.00 0.00 25 1000.0
20260508185028 69 207 4.0 8.0 0.00 0.00 0.00 27 1000.0
20260508184526 69 210 3.0 6.0 0.00 0.00 0.00 28 1000.2
20260508184022 71 258 2.0 5.0 0.00 0.00 0.00 25 1000.3
20260508183519 70 242 2.0 10.0 0.00 0.00 0.00 28 1000.3
20260508183015 69 106 0.0 10.0 0.00 0.00 0.00 27 1000.7
20260508182512 68 229 6.0 7.0 0.00 0.00 0.00 28 1000.5
20260508182008 69 324 2.0 11.0 0.00 0.00 0.00 25 1000.6
20260508181503 69 320 3.0 5.0 0.00 0.00 0.00 27 1000.6
20260508181001 70 311 6.0 10.0 0.00 0.00 0.00 25 1000.6
20260508180458 70 207 2.0 7.0 0.00 0.00 0.00 28 1000.7
20260508175954 67 232 2.0 6.0 0.00 0.00 0.00 28 1000.9
20260508175450 67 129 2.0 6.0 0.00 0.00 0.00 28 1001.0
20260508174948 68 323 9.0 14.0 0.00 0.00 0.00 25 1001.0
20260508174446 68 173 2.0 14.0 0.00 0.00 0.00 25 1001.1
20260508173942 68 241 5.0 17.0 0.00 0.00 0.00 25 1001.3
20260508173439 68 217 4.0 6.0 0.00 0.00 0.00 27 1001.0
20260508172935 69 323 6.0 11.0 0.00 0.00 0.00 26 1001.5
20260508172433 67 22 3.0 7.0 0.00 0.00 0.00 32 1001.5
20260508171929 66 225 1.0 7.0 0.00 0.00 0.00 28 1001.6
20260508171425 66 317 3.0 8.0 0.00 0.00 0.00 31 1002.0
20260508170922 66 193 3.0 6.0 0.00 0.00 0.00 29 1001.9
20260508170419 66 153 1.0 8.0 0.00 0.00 0.00 27 1001.8
20260508165916 68 349 2.0 7.0 0.00 0.00 0.00 30 1002.0
20260508165414 66 241 2.0 7.0 0.00 0.00 0.00 33 1002.0
20260508164909 65 248 3.0 6.0 0.00 0.00 0.00 29 1001.9
20260508164407 66 219 2.0 5.0 0.00 0.00 0.00 31 1002.1
20260508163904 66 194 3.0 8.0 0.00 0.00 0.00 30 1002.5
20260508163402 66 274 2.0 6.0 0.00 0.00 0.00 29 1002.4
20260508162857 64 307 5.0 7.0 0.00 0.00 0.00 30 1002.2
20260508162355 64 251 4.0 12.0 0.00 0.00 0.00 33 1002.4
20260508161851 63 235 2.0 6.0 0.00 0.00 0.00 35 1002.5
20260508161349 62 225 2.0 10.0 0.00 0.00 0.00 33 1002.5
20260508160846 62 261 3.0 9.0 0.00 0.00 0.00 33 1002.4
20260508160345 62 219 3.0 11.0 0.00 0.00 0.00 33 1002.5
20260508155840 62 247 4.0 9.0 0.00 0.00 0.00 33 1002.4
20260508155338 62 236 6.0 13.0 0.00 0.00 0.00 34 1002.6
20260508154835 63 264 3.0 10.0 0.00 0.00 0.00 33 1002.7
20260508154332 64 223 6.0 9.0 0.00 0.00 0.00 33 1002.7
20260508153828 62 246 3.0 12.0 0.00 0.00 0.00 34 1002.6
20260508153326 62 239 1.0 9.0 0.00 0.00 0.00 35 1002.7
20260508152821 61 259 3.0 10.0 0.00 0.00 0.00 35 1002.9
20260508152318 62 204 4.0 9.0 0.00 0.00 0.00 35 1003.1
20260508151815 62 227 5.0 11.0 0.00 0.00 0.00 36 1003.2
20260508151312 62 269 1.0 6.0 0.00 0.00 0.00 35 1003.2
20260508150808 61 304 2.0 20.0 0.00 0.00 0.00 35 1003.0
20260508150305 62 251 7.0 11.0 0.00 0.00 0.00 32 1003.0
20260508145802 62 234 3.0 7.0 0.00 0.00 0.00 34 1003.2